Probability
0 0 0 0 0 0 0 0 0 0 0 0 0 0 0 0 0 0 0 1 2 5 5 3 2 1 0 0 0 1 1 1 0 0 0 0 0 0 0 0 0 0 0
0 0 0 0 0 0 0 0 0 0 0 0 0 0 0 0 0 0 0 1 1 3 4 2 1 0 0 0 0 0 0 0 0 0 0 0 0 0 0 0 0 0 0
1 0 0 0 0 0 0 0 0 0 0 0 0 0 0 0 0 0 1 1 1 2 3 2 1 0 1 2 1 0 0 0 0 0 0 0 0 0 0 0 0 0 0
4 1 0 0 0 1 1 0 0 0 0 0 0 0 0 0 0 0 1 2 2 2 2 2 1 0 2 3 2 1 0 0 0 0 0 0 0 0 0 0 0 0 0
6 3 1 0 1 2 2 1 0 0 0 0 0 0 0 0 0 0 0 1 1 2 2 1 0 0 1 3 3 2 0 0 0 0 0 0 0 1 1 1 0 0 0
7 5 2 0 1 2 3 2 1 0 0 0 0 0 0 0 0 0 0 0 0 1 1 1 2 2 2 2 2 1 1 1 0 0 0 0 0 1 2 2 1 0 0
6 4 2 0 1 2 2 2 1 0 0 0 0 0 0 0 0 0 0 0 0 0 0 1 3 4 4 3 2 1 1 3 2 0 0 0 0 1 2 2 1 0 0
5 4 2 1 0 1 1 1 1 0 0 0 0 0 0 0 0 0 0 0 0 0 0 2 3 5 5 5 2 1 1 4 3 1 0 0 0 0 1 2 2 1 0
4 4 3 1 0 0 0 0 0 0 0 0 0 0 0 0 0 0 0 0 0 0 1 2 3 4 6 7 4 1 1 3 4 2 0 0 0 0 1 2 3 2 1
3 3 3 1 0 0 0 0 0 0 0 0 0 0 0 0 0 0 0 0 0 0 1 2 2 4 7 8 5 2 0 2 3 2 1 0 0 0 0 1 2 2 2
1 2 3 2 1 0 0 0 0 0 0 0 0 0 0 1 0 0 0 0 0 0 0 1 2 3 5 6 4 1 0 0 1 2 1 0 0 0 0 0 1 2 3
0 1 2 2 1 0 0 0 0 0 0 0 0 0 0 0 0 0 0 0 0 0 0 1 1 1 3 4 3 1 0 0 0 0 0 0 0 0 0 0 1 2 3
0 0 1 1 1 0 0 0 0 0 0 0 0 0 0 0 0 0 0 0 0 0 0 0 0 0 1 3 2 1 0 0 0 0 0 0 0 0 0 0 0 1 2
0 0 0 0 0 0 0 0 0 0 0 0 0 0 0 0 0 0 0 0 0 0 0 0 0 0 1 3 3 1 1 0 0 0 0 0 0 0 0 0 0 1 2
0 0 0 0 0 0 0 0 0 0 0 0 0 0 0 0 0 0 0 0 0 0 0 0 0 1 2 3 3 2 2 1 0 0 0 0 0 0 0 0 0 0 1
0 0 0 0 0 0 0 0 0 0 0 0 0 0 0 0 0 0 0 0 0 0 0 0 0 1 2 3 2 3 2 1 0 0 0 0 0 0 0 0 0 0 0
0 0 0 0 0 0 0 0 0 0 0 0 0 0 0 0 0 0 0 0 0 0 0 0 1 1 2 2 1 2 2 1 0 0 0 0 0 0 0 0 0 0 0
0 0 0 0 0 0 0 0 0 0 0 0 0 0 0 0 0 0 0 0 0 0 0 0 0 1 1 1 1 1 1 0 0 0 0 0 0 0 0 0 0 0 0
0 0 0 0 0 0 0 0 0 0 0 0 0 0 0 0 0 0 0 0 0 0 0 0 0 0 1 0 0 0 0 0 0 0 0 0 0 0 0 0 0 0 0
0 0 0 0 0 0 0 0 0 0 0 0 0 0 0 0 0 0 0 0 0 0 0 0 0 1 1 1 0 0 0 0 0 0 0 0 0 0 0 0 0 0 0
0 0 0 0 0 0 0 0 0 0 0 0 0 0 0 0 0 0 0 0 0 0 0 0 0 1 1 1 0 0 0 0 0 0 0 0 0 0 0 0 0 0 0
0 0 0 0 0 0 0 0 0 0 0 0 0 0 0 0 0 0 0 0 0 0 0 0 0 0 0 0 0 0 0 0 0 0 0 0 0 0 0 0 0 0 0
0 0 0 0 0 0 0 0 0 0 0 0 0 0 0 0 0 0 0 0 0 0 0 0 0 0 0 0 0 0 0 0 0 0 0 0 0 0 0 0 0 0 0
0 0 0 0 0 0 0 0 0 0 0 0 0 0 0 0 0 0 0 0 0 0 0 0 0 0 0 0 0 0 0 0 0 0 0 0 0 0 0 0 0 0 0
0 0 0 0 0 0 0 0 0 0 0 0 0 0 0 0 0 0 0 0 0 0 0 0 0 0 0 0 0 0 0 0 0 0 0 0 0 0 0 0 0 0 0
0 0 0 0 0 0 0 0 0 0 0 0 0 0 0 0 0 0 0 0 0 0 0 0 0 0 0 0 0 0 0 0 0 0 0 0 0 0 0 0 0 0 0
Wind_Speed
1 2 1 2 2 2 2 2 2 2 1 2 2 2 2 1 1 1 1 4 4 3 2 2 2 2 2 2 2 2 3 3 4 3 2 2 1 1 1 2 2 2 2
1 1 1 1 2 2 2 2 2 1 1 1 1 2 2 1 1 1 0 1 3 3 2 1 1 2 1 1 1 2 2 3 3 3 2 2 1 1 0 1 1 1 0
1 1 1 1 1 1 1 1 1 1 1 1 1 2 1 1 1 1 1 0 0 1 3 2 1 1 1 1 1 2 2 2 2 2 2 1 1 1 1 1 1 1 1
0 1 0 1 1 1 1 1 1 1 1 1 1 1 1 1 2 1 1 1 1 1 0 2 2 1 1 1 1 0 1 1 1 1 2 1 1 2 2 2 2 2 2
1 1 0 0 1 1 1 1 1 1 1 1 2 2 2 1 2 2 1 1 1 1 1 0 1 2 2 1 1 1 1 1 2 2 2 2 2 2 2 2 2 3 3
1 1 1 0 0 0 1 1 1 1 1 1 2 2 2 2 2 2 2 2 1 1 2 1 1 1 1 1 2 2 2 2 2 2 2 2 3 3 3 3 3 4 4
2 2 1 1 1 1 1 1 1 1 1 1 1 1 2 2 2 2 2 2 2 2 2 2 1 1 1 2 2 2 3 3 3 3 2 3 3 4 4 3 4 4 5
3 2 2 2 2 1 1 1 1 1 1 1 1 2 2 2 2 2 2 2 2 2 2 2 2 2 2 1 1 2 3 3 4 4 4 4 4 5 4 5 5 5 4
4 3 3 3 3 2 2 2 2 2 2 2 1 1 2 2 2 2 3 2 2 2 2 2 3 3 3 1 1 1 3 3 4 5 5 5 5 5 6 5 6 6 6
5 4 4 4 4 3 3 3 3 3 3 2 2 2 2 2 2 2 2 2 3 3 3 2 3 3 3 2 1 2 3 4 5 5 6 6 7 7 6 7 6 7 6
5 5 5 4 4 4 4 4 4 4 3 3 3 3 3 3 3 3 4 3 3 3 3 3 3 3 3 2 2 2 3 4 5 6 7 7 7 8 8 8 7 7 7
4 6 5 5 5 4 5 4 4 5 4 5 4 4 4 3 3 3 4 4 4 3 4 3 3 3 2 3 2 3 3 4 5 7 7 7 7 8 8 9 9 8 7
4 5 6 5 5 5 5 5 5 5 5 6 5 4 4 4 4 4 4 4 5 4 4 3 3 3 3 3 2 3 4 5 5 6 8 8 8 8 9 9 10 9 8
5 5 5 6 6 6 5 5 5 6 5 6 6 6 5 4 4 4 4 4 5 5 5 4 3 3 3 3 3 4 4 5 6 7 7 8 8 8 9 9 9 9 8
5 6 6 6 6 6 6 6 5 6 6 6 6 6 5 4 4 4 5 5 5 6 6 4 3 3 3 3 3 4 4 6 7 7 7 7 7 8 8 9 9 8 8
6 7 7 7 6 7 7 6 6 6 7 6 5 7 6 5 5 5 5 5 6 7 7 4 4 4 4 4 4 5 5 6 7 7 7 7 8 8 8 9 9 8 8
7 7 7 7 7 7 7 7 7 7 8 7 7 7 8 7 5 5 5 6 6 6 8 7 5 5 6 5 4 5 4 5 5 7 8 8 8 8 9 9 9 8 8
7 7 7 8 8 8 8 8 8 8 8 8 8 8 8 6 7 6 6 7 6 7 7 9 6 5 6 6 6 6 5 5 5 7 8 8 9 9 9 9 9 8 7
7 7 7 8 8 8 8 8 8 9 9 9 9 9 9 8 8 7 7 7 6 6 7 7 6 5 5 5 5 6 6 5 5 5 7 8 8 8 9 8 8 7 7
7 7 8 8 8 8 9 8 8 8 9 9 9 9 9 9 9 9 8 8 7 7 7 7 6 5 5 5 5 5 5 4 4 4 5 6 7 8 8 8 7 7 7
7 7 7 7 7 7 8 8 8 9 9 9 9 9 10 11 12 10 8 8 8 7 7 7 6 5 5 5 5 4 5 4 4 4 4 5 4 4 5 5 6 6 6
6 7 7 8 8 7 9 10 9 8 9 9 9 9 9 11 12 13 14 13 12 10 9 8 7 7 7 6 5 5 4 4 5 3 5 5 4 5 5 4 6 7 8
6 7 8 8 8 9 10 10 11 8 9 9 8 8 7 7 10 9 10 12 12 14 14 10 9 9 8 7 7 7 6 6 6 4 5 6 5 6 5 5 8 8 8
6 7 7 8 8 8 9 10 10 8 8 8 9 9 9 9 9 9 8 9 9 9 10 9 9 9 8 7 6 7 7 6 5 5 4 6 5 6 6 5 8 9 9
6 6 6 7 7 7 9 10 9 7 7 8 8 9 9 9 11 11 9 9 9 8 9 11 11 9 9 9 7 4 5 5 5 5 4 5 5 6 6 6 6 9 9
5 5 6 6 7 7 9 10 10 6 6 6 6 8 11 10 11 11 9 8 8 7 7 6 7 7 7 7 8 7 6 6 5 5 4 4 4 4 5 5 5 5 5
Wind_Direction
58 58 44 32 24 14 8 7 14 27 27 25 19 13 11 20 31 62 82 52 32 36 55 69 70 72 78 89 88 88 81 75 66 71 76 92 89 82 101 102 109 99 119
60 57 45 30 22 9 358 346 2 0 14 3 3 356 351 347 337 4 28 95 48 24 22 45 68 64 48 77 91 91 82 75 67 51 60 71 61 57 148 156 128 117 147
76 74 47 27 7 354 353 348 3 343 356 355 338 338 339 328 306 295 317 296 161 36 15 6 4 16 33 30 47 76 76 64 53 38 27 47 34 354 335 225 224 239 250
79 117 83 10 346 346 344 347 343 332 330 324 315 314 309 304 298 276 265 295 279 274 336 10 347 352 9 352 354 35 28 354 360 355 4 345 344 336 306 262 245 251 251
198 182 181 347 315 329 343 330 338 301 300 314 309 301 287 277 284 269 253 284 286 291 282 33 350 349 346 330 317 307 308 323 309 311 309 330 303 315 298 303 270 259 265
207 208 200 200 290 304 335 310 297 295 279 299 291 291 286 273 262 271 260 256 282 282 281 279 251 261 302 304 297 286 283 284 294 302 298 314 306 286 282 285 299 280 269
215 223 213 200 222 232 274 292 280 264 299 299 270 278 264 259 263 263 259 256 266 268 285 290 288 278 258 268 286 294 294 288 285 285 295 291 307 290 272 276 281 294 275
217 224 218 207 212 220 224 239 266 250 253 251 259 267 262 235 219 253 256 259 263 258 274 282 286 274 275 257 305 327 314 298 288 284 283 288 286 294 275 269 278 279 289
215 220 221 213 210 217 218 225 231 241 240 235 230 253 259 262 314 253 249 245 259 264 265 271 272 271 264 267 254 283 320 319 297 280 280 281 282 284 284 274 276 281 276
216 216 221 216 210 214 218 221 222 233 232 235 235 247 266 275 263 284 266 259 256 259 260 260 262 264 259 256 272 314 320 310 298 295 289 283 281 276 287 277 278 277 276
221 216 220 220 211 212 216 217 220 226 230 233 235 243 242 239 244 255 270 289 286 267 266 259 251 255 258 256 259 302 314 301 296 292 290 293 286 281 277 284 272 279 277
223 221 217 222 217 213 216 219 220 223 228 232 235 236 239 235 233 247 261 275 285 287 282 263 251 247 252 254 266 318 303 295 292 289 286 287 294 297 287 285 275 273 277
224 224 219 221 218 214 214 220 222 223 226 230 233 238 240 243 243 248 255 266 279 284 271 254 244 248 250 254 257 289 278 286 289 287 285 287 295 299 300 293 289 273 274
226 224 228 230 222 216 215 218 223 225 226 229 234 239 242 241 240 239 244 259 271 271 259 255 244 245 251 261 273 275 261 275 281 283 283 287 293 293 297 296 297 287 274
228 222 222 233 231 219 217 220 225 225 227 230 234 238 242 244 241 241 240 242 251 263 262 259 253 237 256 264 280 271 271 274 276 276 281 286 290 291 292 296 289 294 286
231 225 223 226 235 229 220 221 228 227 230 232 235 236 238 240 243 240 237 239 243 251 262 259 268 274 273 272 271 272 275 275 272 271 275 279 282 283 288 290 288 288 286
229 227 225 224 230 231 227 223 227 227 230 233 234 235 237 240 243 241 239 237 240 244 256 266 268 270 266 273 269 268 268 263 263 272 274 276 278 279 280 282 285 280 282
232 231 226 224 228 232 228 228 226 227 229 232 234 235 237 238 240 242 240 239 241 243 251 261 264 266 264 265 272 266 270 268 265 273 277 279 278 278 277 276 280 276 280
233 232 229 226 228 233 230 230 230 229 230 233 233 232 235 236 239 240 240 240 242 244 247 254 257 260 267 265 269 264 263 266 268 270 271 273 278 282 278 274 276 275 278
231 232 231 229 232 235 231 230 230 231 232 234 235 235 235 235 238 240 241 240 241 244 244 249 251 254 260 263 260 263 261 265 267 276 275 277 276 276 275 273 277 275 275
231 233 235 234 236 236 230 227 229 231 234 235 236 238 238 239 242 243 241 238 238 240 242 247 247 252 252 254 252 261 263 273 269 273 275 273 275 269 267 264 271 271 279
234 232 235 235 237 238 239 239 238 233 234 235 236 239 239 239 241 246 248 249 247 244 242 246 246 247 250 256 258 256 264 263 270 264 273 275 276 274 271 264 265 271 272
240 235 236 236 239 241 241 242 246 245 241 238 237 238 241 241 242 243 247 251 252 255 253 252 249 248 251 249 252 253 253 259 267 270 273 275 273 272 273 265 265 267 265
241 235 236 238 241 240 238 242 245 245 246 243 240 238 240 240 239 240 241 244 246 249 250 248 249 250 253 252 249 258 262 268 277 266 264 275 280 282 282 269 259 260 258
247 242 238 238 238 239 236 238 242 242 243 246 244 240 239 239 240 242 241 242 246 251 255 256 256 258 258 257 254 253 255 253 267 270 267 269 277 287 283 273 261 257 257
249 254 245 241 237 237 237 238 240 237 240 244 244 242 241 240 240 242 239 238 242 247 250 251 250 253 252 248 250 243 244 246 257 262 252 261 269 286 284 274 268 261 254